CAPE
3053 3027 2714 2192 1042 534 316 536 894 1126 1268 1328 1238 633 404 267 175 137 114 140 202 232 257 297 355 383 396 423 346 351 453 666 617 650 822 935 1319 1572 1610 1514 1626 1828 2335 2178 1762 1615 1922 2169 2278 2377 2365 2429 2113 2092 2274 2122 1672 2414 2911 3076 2082 1908 1902 1751 1123 2006 1742 1496 2323 2534 2224 2588 2511 2584 2079 2378 3658 4070 3252 4106 4696 4214 4144 4054 3903
2984 2927 2433 1481 675 562 402 535 1132 1391 1498 1387 1276 680 376 276 158 198 118 141 240 372 462 434 426 451 475 539 530 506 638 806 719 793 937 1064 984 936 930 1002 1165 1294 1668 1910 2010 1868 1836 1989 1976 1937 2344 2533 2225 2266 1966 2016 2467 2615 2895 2365 1718 1810 2479 1480 1773 2385 1544 1511 2140 2152 2129 2624 2745 2726 2361 2224 3410 4364 3548 4347 4783 4397 4170 3899 3636
3070 2478 1791 1412 1013 841 1030 1217 1488 1760 1867 1746 1335 860 449 308 218 297 395 439 414 364 338 336 361 461 519 575 650 677 740 778 740 940 1118 1250 1305 1130 825 729 757 693 818 1275 1528 1755 1708 1809 1710 1851 2017 2084 2088 2195 2227 2320 2596 2658 2614 2806 2351 2008 2589 2181 1694 2394 1572 1140 2049 2523 2651 3270 3097 2285 1862 2464 3128 4325 3994 4258 3982 3990 3994 3740 3531
2384 1999 1740 1096 1038 1224 1582 1893 1941 1965 1899 1710 1439 1038 699 434 297 440 743 792 515 402 415 417 528 710 850 868 933 1099 1219 1311 1165 1104 1473 1672 1524 1390 1116 943 812 656 666 702 766 889 1166 1520 1709 1788 2166 2257 1842 1867 2471 2290 2319 2625 2717 2761 2752 3079 3013 2512 1949 1691 2047 1600 1432 2028 2241 2692 3441 3290 2556 2482 2802 3908 3881 3874 3421 3701 3698 3382 3258
2194 2196 1703 1501 1482 1659 1930 2142 2124 2033 1598 1364 1145 1052 996 754 495 590 866 873 762 679 627 689 707 774 720 857 1035 1222 1320 1442 1567 1637 1712 1676 1592 1470 1248 1176 1094 1062 946 916 899 976 923 983 1047 1503 1808 2220 2452 2740 2037 2151 2456 2285 2607 2630 2539 2628 2529 2354 2457 2082 1681 1596 1216 1182 2145 2679 3294 2713 2430 2542 2884 3456 4098 3806 3375 3460 3124 2968 2694
2547 2270 2018 1921 1954 1954 2083 2328 2336 2227 2126 1992 1557 1180 1164 1110 1205 1125 1081 1331 1505 1318 1186 1104 689 506 532 612 812 1012 1219 1385 1543 1536 1529 1465 1336 1297 1244 1264 1210 1184 1177 1007 919 865 822 928 1025 1114 1295 1517 1877 1793 2148 2268 2427 2326 2477 2722 2608 2406 2496 2482 2488 1978 1574 1668 1878 754 2327 3426 3464 3773 2980 2642 2605 2830 3454 3724 3410 3147 2915 2744 2564
3076 2836 2615 2394 2429 2329 2150 2204 2418 2472 2411 2227 1862 1585 1665 1717 1633 1532 1472 1528 1579 1448 1346 1236 973 898 1001 1119 1017 1073 1142 1172 1296 1470 1503 1526 1504 1493 1408 1314 1222 1141 1194 1132 1045 884 756 628 720 830 961 1116 1495 1769 2262 2340 2474 2316 2494 2653 2676 2637 2328 1966 2013 1772 1751 1876 1710 1570 1252 2076 3422 4111 3550 3450 3278 2816 2683 3132 2973 2845 2781 2518 2763
2950 2913 2811 2601 2504 2309 2141 2034 2178 2367 2476 2453 2382 2239 2218 2061 1840 1727 1717 1729 1712 1549 1458 1358 1215 1174 1224 1276 1298 1288 1357 1256 1238 1267 1343 1378 1372 1370 1300 1200 1147 1063 1068 1097 1001 952 826 721 667 740 688 655 830 1212 2054 2352 2430 2602 2144 2304 2418 2506 2549 2304 2141 1740 1449 1691 1365 1476 1472 1041 2994 3437 3283 2514 2418 2542 2256 1660 2530 2340 2453 2706 2528
2739 2777 2782 2793 2742 2652 2534 2411 2456 2621 2722 2733 2539 2316 2132 1984 1922 1869 1894 1711 1409 1240 1277 1228 1227 1196 1216 1216 1268 1191 1228 1120 1142 1188 1215 1216 1260 1256 1225 1053 1135 1024 849 876 879 884 952 855 794 840 879 844 930 1309 1782 1989 2220 2360 2557 2513 2548 2618 2848 2110 2280 2056 1392 1410 1292 1295 1737 1626 2070 2511 2208 2130 2322 2942 2844 2150 2163 2401 2038 2643 2712
3044 2895 2724 2676 2682 2741 2819 2865 2796 2527 2424 2268 2125 2029 1894 1822 1814 1782 1714 1644 1567 1532 1528 1407 1309 1258 1254 1245 1256 1231 1171 1163 1143 1222 1256 1297 1222 1136 1106 968 1070 1080 834 848 874 858 888 850 848 794 742 763 826 1063 1292 1393 1422 1886 2473 2285 2388 2674 2836 2918 2842 1984 1427 1817 1659 1250 1235 1719 1562 1325 1348 2286 2822 2898 2786 2718 2312 2331 2100 2588 1957
2766 2742 2773 2716 2656 2627 2420 2160 1995 1989 1906 1808 1766 1780 1821 1808 1709 1618 1508 1517 1534 1506 1412 1447 1330 1283 1287 1253 1229 1179 1054 1039 1039 916 915 906 1202 1149 938 844 897 944 696 651 781 826 796 842 925 950 1096 1190 1444 942 987 1122 1274 1384 1353 1284 1167 1024 1547 1638 2298 1894 1478 1106 1210 1159 1136 1167 1774 1908 2143 1755 1494 2539 2539 2919 2834 2644 2481 1522 2179
2062 2148 2116 1999 1904 1784 1702 1693 1815 1892 1880 1852 1834 1787 1738 1674 1510 1458 1329 1318 1276 1216 1178 1208 1222 1236 1148 1108 1113 1072 1016 858 718 709 708 698 798 996 790 745 654 745 892 842 705 786 749 816 844 866 896 945 1062 1268 1362 1024 964 1102 1192 1276 1342 1392 1331 1828 2250 1868 1182 996 962 1011 1324 1184 1980 2170 2384 1992 1431 3172 3425 3337 3192 2890 2580 2254 2295
1686 1625 1650 1708 1742 1776 1795 1814 1818 1796 1782 1789 1741 1646 1557 1430 1329 1312 1199 1118 1036 1108 1148 1091 1151 1161 1065 1061 1066 1004 922 758 684 646 599 551 548 618 806 651 569 669 703 737 528 576 853 832 839 836 828 642 752 901 1076 1403 1362 1031 984 1020 1098 1182 1324 1490 1548 1739 1798 1656 1032 1580 1554 1586 1821 2048 1603 2257 3070 1766 2876 3260 2766 2055 1701 2213 2545
1756 1796 1826 1821 1796 1726 1684 1769 1802 1800 1760 1714 1568 1464 1348 1261 1166 1111 1078 1084 1053 1054 988 1003 1059 1112 1118 1084 1082 1022 982 842 684 665 640 610 577 572 873 722 656 657 711 762 539 616 766 986 822 781 860 956 1206 1080 1071 1114 1132 1743 1936 1649 1748 1526 1120 1267 1537 1407 1183 1673 1591 1810 1867 2294 2426 2359 2582 2436 2034 1812 2892 1795 2582 2633 2698 2612 2600
1633 1655 1674 1742 1861 1910 1877 1683 1583 1550 1452 1355 1302 1265 1206 1140 1072 1050 1045 1032 992 970 984 996 996 963 1037 1060 1005 955 904 712 658 632 610 631 616 588 826 771 658 640 723 735 825 780 706 991 973 736 840 864 978 1145 1294 1315 1487 1481 1161 2111 1939 1780 1618 1798 1774 1656 1230 1062 1471 1933 1736 1938 1981 2521 3050 2366 2090 1671 1928 2959 3316 3083 2547 2458 2839
1856 1824 1819 1744 1654 1582 1551 1512 1412 1326 1244 1184 1132 1069 1043 1019 977 991 987 1003 1000 1010 1046 1000 993 1019 1014 1074 1011 907 902 674 654 611 544 507 512 627 830 900 797 812 906 915 1007 1007 980 902 1018 1027 954 874 752 590 658 1072 1144 1528 1856 2036 2224 1594 1593 1728 1708 1690 1725 1760 1650 1551 1518 1578 1269 2480 2995 3181 2454 2358 1774 3254 2452 2492 1934 1551 1510
1401 1390 1455 1444 1371 1328 1296 1234 1180 1149 1102 1053 1013 962 940 927 920 939 929 916 922 932 979 918 902 929 965 991 965 918 946 886 766 721 686 640 575 778 1004 918 802 654 904 974 1080 1088 1002 772 558 1082 1052 1142 863 573 489 490 1023 819 1260 1794 1522 1234 1360 1380 1637 1586 1572 1426 1409 1314 1276 1124 1075 1064 1239 1226 1284 1243 1623 1796 1869 1636 1682 1224 1312
1320 1247 1141 1091 1101 1095 1128 1063 1111 1086 984 954 905 878 852 852 887 915 843 814 873 862 873 836 818 845 894 922 907 913 942 929 865 900 886 811 688 978 1090 895 798 979 613 518 1004 1074 966 604 712 494 1029 960 747 546 486 512 606 928 1118 718 620 711 963 1006 1217 1589 1356 1497 1388 1305 1218 1204 1108 1098 1098 1134 1096 976 1528 1724 1536 1348 1360 1401 1276
987 931 894 908 874 923 975 958 924 869 833 797 763 769 814 796 817 847 752 722 756 733 676 619 640 640 694 772 690 768 839 822 760 784 752 675 643 888 1153 1248 1200 967 709 588 884 850 670 792 516 414 460 569 366 408 466 564 512 476 842 1005 1030 1031 904 962 1139 1210 1772 1570 1300 1188 1136 1073 1141 1159 1380 1023 1104 1117 1086 1350 2103 1566 1798 1392 1668
799 809 808 794 770 764 810 824 790 723 735 726 767 768 762 782 785 839 606 567 568 546 563 536 572 589 664 678 700 703 790 906 882 754 778 784 774 795 1240 1250 1135 917 728 678 903 492 326 746 943 464 347 285 15 288 245 270 359 912 322 585 1202 787 914 909 1149 1705 1837 1387 1170 1451 1206 1686 1658 1234 1707 1943 1311 1300 1601 1440 1303 2435 2011 1336 1023
620 655 630 636 651 636 640 604 618 610 560 598 645 672 711 620 674 608 438 496 535 530 559 577 545 542 606 632 694 746 736 748 734 572 510 500 524 492 667 867 1024 895 204 488 524 540 555 732 404 516 517 442 420 373 348 74 19 576 514 412 928 955 904 1062 1336 1305 1905 1679 1134 985 984 1938 2076 1791 1216 1348 2176 1964 1799 1508 1992 1908 1554 1238 858
534 544 540 523 476 423 452 467 462 422 414 498 511 511 526 488 451 416 443 438 427 450 486 481 482 464 519 609 596 694 671 582 734 532 458 464 478 479 388 680 677 642 626 733 634 290 346 391 490 817 649 461 296 0 209 119 0 130 616 455 660 782 1277 1071 818 1376 1306 834 1058 1560 2166 1885 1870 2295 2567 2515 2313 1654 1676 1789 1960 1965 1332 1496 1438
372 344 348 340 377 373 374 374 356 397 316 361 368 349 424 404 420 369 340 338 352 394 419 418 409 402 394 398 407 465 613 753 585 780 672 577 470 474 370 301 208 175 423 284 266 298 384 480 558 306 265 210 230 232 255 250 243 81 111 316 467 638 683 910 541 396 422 1848 1498 1409 1272 1106 2005 1964 1254 1458 1315 1114 1125 1210 1353 1484 1395 1421 1707
185 181 160 133 152 244 252 288 293 274 247 251 261 234 242 226 248 276 280 304 332 338 330 314 338 355 343 306 367 472 564 855 846 766 1008 750 620 396 246 167 137 155 213 186 121 97 156 283 421 286 306 244 94 208 363 448 407 355 320 288 293 360 351 468 484 780 806 1320 1432 1513 1658 1478 1909 1527 1658 2261 1457 1047 976 950 1143 1199 1178 1283 1133
44 54 53 78 98 123 146 148 124 114 121 113 100 100 120 146 160 183 204 237 256 263 286 245 249 268 268 324 472 714 846 995 1187 1039 614 482 371 250 168 176 177 196 182 139 5 6 4 106 131 117 64 242 244 251 348 538 524 450 400 368 354 314 274 519 689 922 769 855 1204 1444 1863 1416 1451 1179 1040 1126 1106 1038 1003 970 881 887 824 770 571
19 20 18 24 30 34 26 20 20 13 15 19 28 69 63 115 157 198 206 212 234 210 240 195 200 182 207 374 492 476 601 668 516 440 221 148 162 182 197 203 211 220 188 168 146 126 151 190 198 206 130 256 265 81 533 537 486 530 550 523 486 446 430 454 431 474 558 789 960 1455 844 974 1028 1064 1049 1144 1117 1064 1050 1000 813 810 761 719 559
12 12 17 16 16 13 12 10 10 14 27 46 60 58 90 114 140 172 174 202 210 123 177 158 155 174 360 358 362 181 196 186 178 163 160 146 128 110 138 163 194 218 256 265 230 228 227 218 228 260 304 321 284 267 465 573 598 522 409 403 266 337 477 440 399 454 608 841 948 621 546 585 444 549 752 882 990 937 860 857 856 810 724 737 669
8 10 9 12 11 14 16 16 21 21 19 56 77 110 102 103 135 124 170 175 128 132 116 184 213 186 252 103 71 166 149 148 171 144 74 39 25 51 133 212 274 310 325 322 266 176 389 390 343 300 295 443 418 382 552 733 678 847 1009 521 375 397 417 407 354 401 357 379 634 608 597 612 633 617 626 662 685 720 674 680 574 448 398 424 423
13 12 15 16 18 22 20 25 25 23 29 34 56 79 108 93 167 172 209 179 124 147 290 241 124 13 8 78 126 101 126 171 143 65 45 36 41 76 208 295 334 376 370 384 328 305 369 463 690 498 467 498 507 398 503 454 423 398 371 325 355 430 458 361 352 421 538 579 623 629 711 757 815 779 731 751 760 709 498 454 416 354 264 218 215
12 15 18 21 18 15 16 20 20 24 28 46 82 84 34 75 191 132 156 79 86 164 189 46 4 74 102 104 94 94 110 126 82 52 44 36 68 146 283 355 375 419 496 432 377 117 124 460 656 680 462 488 622 695 553 409 355 308 296 357 420 514 487 378 344 227 356 548 588 398 338 93 180 557 686 770 720 621 499 458 413 314 248 6 47
19 18 22 21 17 12 17 22 29 46 32 48 212 111 126 214 127 188 199 197 178 208 172 138 130 138 106 109 96 67 56 51 34 26 23 35 118 229 302 332 338 389 477 496 567 429 360 398 492 654 508 745 693 478 452 339 430 384 334 343 394 394 349 278 284 351 341 361 335 394 413 314 509 602 655 525 472 368 277 92 1 2 1 1 0
20 30 30 25 16 20 17 46 50 186 319 220 306 329 192 196 223 165 108 176 154 134 135 127 102 110 88 60 44 43 37 35 26 17 22 74 122 152 131 144 260 274 342 496 583 552 456 515 637 545 476 515 437 452 476 488 455 484 509 404 404 307 336 356 312 484 466 446 389 426 453 399 408 411 331 256 177 46 2 2 2 1 0 1 1
25 24 24 24 22 38 17 62 83 60 226 471 513 441 300 311 438 385 86 6 112 110 86 73 74 72 61 43 28 4 15 30 30 26 26 44 57 83 112 162 391 519 424 462 514 499 382 210 346 305 320 286 296 449 541 508 576 482 414 401 461 461 91 397 244 21 19 105 377 337 357 249 4 2 97 36 0 0 0 0 0 0 0 0 0
23 19 24 21 27 13 23 44 69 139 262 405 498 638 570 456 312 86 6 8 28 38 50 52 58 64 38 23 21 19 25 27 19 26 33 43 56 64 84 159 341 481 425 272 375 122 6 74 358 338 314 346 401 409 434 237 694 635 496 451 442 285 109 340 12 82 77 262 26 22 65 10 2 20 0 0 0 0 0 0 0 0 0 0 0
20 22 13 13 17 14 18 36 83 256 492 394 135 94 169 129 10 7 12 14 49 54 58 74 53 44 31 27 27 24 25 32 30 32 34 38 40 46 80 182 302 262 242 223 13 89 8 15 171 380 370 161 54 306 197 164 362 380 291 201 20 24 25 26 24 24 20 9 2 2 0 0 0 0 0 1 0 0 0 0 0 0 0 0 0
12 10 6 5 6 11 14 113 109 140 137 183 160 31 13 7 2 16 19 9 50 78 62 28 32 22 17 14 7 17 22 18 23 36 32 35 31 30 71 135 129 108 21 36 13 27 184 199 74 53 232 232 6 116 23 13 10 36 196 11 15 14 16 20 16 26 26 14 54 0 0 0 10 0 0 1 1 0 0 0 0 0 0 0 0
5 6 3 8 8 12 18 97 182 170 68 42 10 7 20 13 23 10 9 12 38 12 8 12 12 9 6 22 19 12 8 8 6 27 22 28 30 32 51 56 16 17 20 27 26 23 14 22 18 8 12 16 18 8 14 8 9 10 6 6 13 10 12 7 2 0 35 0 0 0 0 0 4 6 1 2 1 0 0 0 0 0 0 0 0
5 12 7 4 17 18 24 174 267 66 36 9 16 16 13 17 10 12 12 15 20 10 7 11 4 6 6 8 18 20 4 1 0 12 12 16 15 11 14 13 13 14 27 21 16 11 13 26 15 10 10 12 4 4 0 0 0 0 1 2 0 0 0 0 0 3 2 0 0 0 0 0 0 0 0 0 0 0 0 0 0 0 0 0 0
4 3 4 12 15 40 40 70 23 16 13 11 11 16 15 14 12 7 14 12 13 9 16 9 4 1 0 7 10 3 0 4 9 10 12 13 16 18 19 20 16 12 14 17 22 26 23 27 23 19 18 20 14 1 0 0 0 0 1 0 0 8 0 0 0 2 0 0 2 4 4 6 0 0 0 0 0 0 0 0 0 0 0 0 0
7 2 3 10 6 28 20 14 14 13 20 20 13 11 13 14 12 12 18 20 25 18 14 9 4 0 4 3 9 7 4 5 7 8 4 5 11 11 16 14 14 11 11 10 2 1 0 0 0 0 0 0 0 0 3 3 3 4 2 5 1 2 4 0 1 0 0 0 0 0 0 0 0 0 0 0 0 0 0 0 0 0 2 2 2
4 14 12 12 14 12 19 19 15 22 21 19 17 19 20 16 16 32 22 19 19 12 14 5 8 6 5 0 0 2 12 13 11 7 10 5 6 4 4 8 13 8 12 11 5 0 0 0 0 0 0 0 0 0 0 0 1 0 0 0 0 0 0 0 0 0 0 0 0 0 0 0 0 0 0 0 0 0 0 1 2 2 2 3 3
17 10 13 15 29 27 22 23 16 47 19 13 12 13 13 14 34 28 14 14 20 21 14 12 6 12 8 0 0 0 6 6 4 5 4 3 6 8 6 6 6 5 6 5 6 8 4 2 2 2 2 0 0 0 0 0 0 0 0 0 0 0 0 0 0 0 0 0 0 0 0 0 0 0 0 0 0 0 0 0 0 0 1 0 1
6 10 13 18 21 19 10 12 18 16 19 14 15 13 18 28 26 30 21 21 28 24 25 27 32 29 20 10 1 0 4 5 4 2 1 1 0 1 2 4 4 4 4 3 2 3 2 1 0 0 0 0 0 1 0 0 0 0 0 0 0 0 0 0 0 0 0 0 0 0 0 0 0 0 0 0 0 0 0 0 0 0 0 0 0
11 16 16 11 10 20 11 17 17 11 23 19 19 19 10 30 23 15 14 11 9 12 16 24 25 22 14 6 0 0 5 3 4 4 6 4 2 1 0 0 1 0 0 1 1 1 0 0 0 0 0 0 1 0 4 10 8 2 0 0 0 0 0 0 0 0 0 0 0 0 0 0 0 0 0 0 0 0 0 0 0 0 0 0 0
8 11 10 16 14 3 6 12 14 14 8 8 8 12 19 25 25 18 11 9 4 6 9 8 6 5 4 3 4 7 6 2 2 1 2 2 2 2 0 0 0 0 0 0 0 0 0 0 0 0 0 0 0 0 0 0 0 0 0 0 0 0 0 0 0 0 0 0 0 0 0 0 0 0 0 0 0 0 0 0 0 0 0 0 0
8 6 9 10 6 5 3 5 3 8 8 6 6 8 15 18 16 11 8 5 5 4 2 4 4 4 2 2 2 8 10 4 0 0 0 0 0 0 0 0 0 0 0 0 0 0 0 0 0 0 0 0 0 0 0 0 0 0 0 0 0 0 0 0 0 0 0 0 0 0 0 0 0 0 0 0 0 0 0 0 0 0 0 0 0
1 0 0 4 4 2 2 4 4 2 2 5 4 7 10 18 16 9 1 0 0 0 0 0 1 1 2 2 0 0 0 0 0 0 0 0 0 0 0 0 0 0 0 0 0 0 0 0 0 0 0 0 0 0 0 0 0 0 0 0 0 0 0 0 0 0 0 0 0 0 0 0 0 0 0 0 0 0 0 0 0 0 0 0 0
9 8 4 3 4 4 2 2 4 0 0 1 2 4 6 11 16 4 0 0 0 0 0 0 0 0 0 0 0 0 0 0 0 0 0 0 0 0 0 0 0 0 0 0 0 0 0 0 0 0 0 0 0 0 0 0 0 0 0 0 0 0 0 0 0 0 0 0 0 0 0 0 0 0 0 0 0 0 0 0 0 0 0 0 0
2 1 2 3 2 1 0 2 0 0 0 0 0 0 3 5 7 5 0 0 0 0 0 0 0 0 0 0 0 0 0 0 0 0 0 0 0 0 0 0 0 0 0 0 0 0 0 0 0 0 0 0 0 0 0 0 0 0 0 0 0 0 0 0 0 0 0 0 0 0 0 0 0 0 0 0 0 0 0 0 0 0 0 0 0
2 2 2 2 5 4 2 1 0 0 0 0 0 0 0 0 0 1 1 3 7 6 6 4 2 0 0 0 0 0 0 0 0 0 0 0 0 0 0 0 0 0 0 0 0 0 0 0 0 0 0 0 0 0 0 0 0 0 0 0 0 0 0 0 0 0 0 0 0 0 0 0 0 0 0 0 0 0 0 0 0 0 0 0 0
0 0 0 0 0 1 1 0 0 0 0 0 0 0 0 0 0 0 0 0 0 0 0 0 0 0 0 0 0 0 0 0 0 0 0 0 0 0 0 0 0 0 0 0 0 0 0 0 0 0 0 0 0 0 0 0 0 0 0 0 0 0 0 0 0 0 0 0 0 0 0 0 0 0 0 0 0 0 0 0 0 0 0 0 0
Wind_Speed
38 37 37 37 35 36 37 38 37 36 35 33 31 28 28 27 28 29 30 28 28 27 26 26 26 25 24 25 24 25 26 25 25 26 26 25 25 23 22 21 21 21 21 19 19 19 19 19 20 23 26 25 23 24 27 27 23 26 32 33 27 25 26 26 18 19 23 23 25 28 27 26 24 25 27 29 31 34 29 28 30 28 26 25 27
37 37 37 36 36 36 34 36 38 37 36 34 32 30 29 29 28 29 28 29 28 27 26 26 26 26 26 26 26 26 27 27 27 28 27 26 25 26 24 23 23 22 22 21 21 22 21 19 19 20 25 25 24 24 24 24 25 28 33 32 27 26 29 28 20 20 21 24 25 26 27 30 29 25 26 29 29 34 33 30 30 28 26 26 26
36 36 36 36 37 37 37 38 39 38 37 36 34 32 30 30 31 29 29 28 28 27 26 26 26 26 26 27 27 27 28 29 30 30 30 28 27 26 25 23 23 23 23 22 22 23 21 20 19 21 25 25 26 27 26 24 25 25 26 29 27 26 29 32 25 22 21 21 25 26 28 32 29 25 24 28 30 33 34 31 29 29 28 26 27
37 38 38 37 37 37 37 38 38 38 37 36 34 31 30 32 32 32 30 29 27 27 26 26 27 26 25 25 27 28 29 30 31 31 31 30 29 28 26 25 24 24 24 23 23 24 24 22 21 23 23 22 24 29 30 27 26 27 26 28 28 27 30 31 27 26 27 26 22 24 28 29 29 28 29 27 29 31 32 32 28 28 29 27 26
39 39 38 37 36 36 36 36 36 36 34 33 32 32 32 33 34 34 34 31 30 29 29 28 28 28 27 26 27 28 29 31 31 31 32 32 31 30 29 28 26 26 25 26 25 25 26 24 22 23 24 23 24 28 31 30 30 28 27 28 29 30 30 31 29 30 30 27 27 24 27 28 32 30 32 28 29 30 31 31 29 28 28 28 27
39 39 38 37 36 34 35 35 35 36 35 35 33 34 36 38 39 39 38 36 36 35 33 32 29 27 27 26 27 28 30 31 32 32 32 33 33 32 31 29 28 27 27 26 26 26 27 27 25 25 25 23 23 26 30 30 31 30 27 29 31 31 31 30 30 28 28 28 28 28 25 29 30 33 34 29 29 31 31 30 30 29 29 29 28
39 39 38 37 36 36 36 36 37 37 38 37 37 39 39 40 40 40 40 39 37 36 34 31 29 27 26 26 25 26 29 30 31 32 32 33 33 33 32 30 29 29 28 27 26 26 27 28 28 27 26 24 24 26 29 30 32 30 30 29 30 33 32 31 30 28 29 32 32 30 27 26 30 34 36 33 29 29 29 29 28 30 30 30 30
38 38 38 38 38 38 38 39 39 40 40 40 39 39 39 38 38 37 37 36 35 34 32 30 29 28 26 25 24 24 26 27 28 29 30 31 32 32 32 31 30 29 28 27 27 27 27 29 29 28 27 26 25 26 29 31 32 33 33 32 31 32 33 35 35 34 32 31 30 32 31 28 30 34 40 36 27 26 33 26 28 31 32 32 31
38 37 37 37 38 39 39 39 40 40 39 38 37 36 36 35 35 34 34 33 33 32 31 30 29 27 26 24 22 22 23 24 26 27 27 27 28 29 30 30 28 28 29 28 28 28 28 30 31 30 28 27 26 27 29 32 33 34 35 35 35 34 36 37 37 38 33 34 32 30 31 31 29 34 33 32 25 27 33 30 31 34 34 33 32
37 37 38 38 39 39 38 38 37 36 35 34 34 33 33 33 33 32 32 32 32 32 31 30 29 28 26 25 24 24 23 24 24 23 25 26 26 28 29 30 29 29 30 29 29 29 28 29 31 28 29 30 29 28 28 28 30 32 37 39 40 36 37 41 41 38 36 34 31 29 30 30 28 27 26 26 28 34 34 33 32 35 32 33 30
39 39 39 38 37 36 35 34 32 32 32 31 31 31 31 32 32 31 31 31 31 31 31 29 28 28 27 25 24 24 25 25 24 26 28 29 29 28 28 29 29 30 30 30 31 31 30 29 31 31 31 31 31 28 29 29 28 28 29 31 36 36 37 39 36 35 38 33 31 33 30 26 24 29 29 31 30 32 33 35 36 37 33 30 30
41 40 39 37 36 34 33 32 31 31 31 30 30 31 31 31 31 30 30 30 30 30 29 29 27 27 27 26 25 25 25 26 27 29 31 32 34 31 30 31 32 32 32 31 33 33 31 31 33 35 35 32 32 32 31 29 27 28 29 30 31 29 29 35 35 34 35 34 33 31 28 24 25 30 31 31 27 34 36 38 38 36 34 29 30
41 38 37 36 35 34 33 32 31 31 30 30 31 32 31 30 29 29 28 28 29 29 28 27 27 27 27 26 26 26 27 27 30 31 32 32 34 35 33 32 32 32 32 32 33 34 34 34 34 36 36 34 33 31 31 32 33 29 29 31 32 31 28 26 28 32 36 37 32 27 26 25 27 30 31 29 31 36 33 36 36 33 30 28 28
39 37 36 35 35 34 34 34 33 33 33 33 33 32 31 30 29 29 28 27 27 26 25 25 26 27 28 27 27 27 27 27 29 32 33 34 35 37 34 31 32 31 31 31 33 33 33 33 32 34 34 33 33 32 32 31 32 36 37 37 37 33 29 26 28 27 30 33 29 24 24 28 29 30 31 38 32 29 34 31 32 32 31 28 30
37 36 35 35 36 36 36 36 35 35 35 35 35 34 33 31 30 29 28 27 25 25 24 24 25 25 26 26 26 26 27 26 29 31 33 34 35 36 33 31 31 30 29 29 29 29 29 30 30 30 31 32 33 33 33 32 34 37 37 37 36 35 34 32 29 29 30 28 24 22 26 30 28 28 33 35 33 28 28 31 35 36 35 35 35
36 36 36 36 37 37 37 38 38 38 37 37 36 34 33 32 30 29 28 27 26 25 23 23 22 22 23 23 23 23 24 25 28 31 33 34 34 35 29 29 28 28 27 27 28 30 30 29 29 29 29 30 29 30 32 34 35 37 37 35 35 38 40 38 33 31 32 30 27 25 27 27 28 30 32 36 35 33 30 46 46 42 38 36 33
36 37 37 38 38 38 39 38 39 38 38 36 34 32 31 30 29 30 27 26 25 24 23 23 23 22 21 21 21 21 22 25 28 29 30 30 33 31 28 28 29 26 26 26 27 28 30 30 28 30 30 30 30 30 33 35 35 34 34 32 32 37 40 39 38 35 32 29 26 26 26 27 27 27 28 33 36 35 36 42 38 38 37 36 36
38 39 39 39 39 39 39 39 38 37 35 33 31 30 29 29 28 28 26 26 25 23 23 23 23 23 21 20 21 21 23 24 26 27 28 29 32 29 29 28 29 32 30 26 27 28 27 24 26 27 29 30 30 32 33 37 34 33 31 29 32 34 37 37 39 39 32 29 28 27 29 29 28 29 31 33 34 38 36 34 37 41 37 35 37
40 40 40 39 38 38 38 37 36 33 32 30 29 28 27 27 26 26 25 25 23 23 23 22 22 22 21 20 20 21 22 21 21 24 26 28 31 30 30 29 29 30 29 26 25 28 26 26 24 23 24 25 27 32 35 37 35 32 30 31 31 31 33 36 38 36 37 40 37 35 34 32 33 35 35 31 35 38 33 29 38 40 39 36 40
40 40 39 38 37 36 36 34 32 30 29 28 28 27 27 26 24 24 24 24 22 22 22 22 20 20 20 21 23 23 22 20 20 22 27 29 31 32 31 31 29 27 25 23 26 27 24 22 24 23 23 21 nan 27 31 36 34 35 34 31 31 30 34 37 39 39 36 41 40 37 34 34 35 34 35 37 36 38 38 37 33 40 39 40 40
38 37 36 34 33 32 31 31 28 27 27 27 26 26 26 24 24 23 22 22 21 21 19 19 18 18 20 21 22 21 21 19 20 23 26 29 31 33 31 28 27 27 23 22 25 24 24 24 24 23 26 25 23 25 27 nan nan 32 32 31 29 33 39 39 42 40 38 39 38 40 39 41 42 42 38 34 34 37 39 38 37 41 41 40 38
35 34 32 31 30 29 28 28 27 27 27 26 24 24 24 23 23 22 23 22 18 16 16 17 18 18 19 20 20 19 21 22 22 21 24 25 27 28 29 25 24 24 23 24 24 24 24 25 27 28 29 26 24 nan 26 29 nan 34 28 27 31 38 40 40 42 43 44 39 38 41 45 45 44 43 42 38 38 35 35 38 40 40 39 40 42
31 30 29 28 28 27 26 25 26 27 25 24 22 21 22 22 21 21 20 19 16 14 15 17 18 17 17 19 20 21 23 25 26 24 23 26 25 25 24 23 21 25 24 21 23 23 22 24 25 26 26 26 27 26 27 27 31 nan 25 27 32 35 39 41 43 42 40 41 39 40 42 41 42 44 40 37 36 35 35 36 37 37 39 38 38
28 27 27 27 26 27 26 24 24 24 22 23 22 20 20 20 20 20 19 18 17 15 17 18 18 17 17 19 22 24 25 26 25 24 23 22 22 21 21 21 22 26 23 20 19 nan 19 20 24 23 27 28 nan 27 28 29 32 28 27 27 30 34 37 37 37 38 38 39 37 35 37 38 41 41 38 39 38 37 37 37 36 35 35 36 40
nan nan nan nan nan 24 23 22 21 22 22 21 21 20 19 19 20 20 19 19 18 18 18 19 20 19 20 21 23 24 26 25 25 25 24 24 22 21 19 18 19 18 17 15 nan nan nan 18 19 21 nan 26 24 25 29 27 25 26 27 28 31 34 34 34 34 37 37 36 35 34 40 49 50 51 51 52 53 53 51 52 52 53 54 55 55
nan nan nan nan nan nan nan nan nan nan nan nan nan nan nan 21 21 20 20 20 20 20 20 20 20 21 23 24 24 23 22 22 22 23 25 23 20 19 19 16 12 10 7 9 11 12 12 12 12 13 18 23 26 nan 30 27 27 24 24 26 32 32 33 32 33 34 33 33 33 36 47 47 48 50 53 55 56 54 52 49 51 52 51 51 54
nan nan nan nan nan nan nan nan nan nan nan nan nan nan nan 24 22 20 21 20 20 21 21 21 21 23 26 25 22 20 20 21 21 21 22 21 20 21 21 18 13 13 12 12 13 15 14 13 15 15 17 17 18 21 22 24 26 27 28 30 33 32 32 34 32 32 30 31 37 45 44 46 49 52 53 56 57 56 54 54 54 53 53 53 56
nan nan nan nan nan nan nan nan nan nan nan nan nan 26 25 24 23 21 20 20 20 20 21 22 24 24 24 22 nan 18 18 18 20 21 nan nan nan nan 11 10 11 11 11 10 13 18 21 18 16 17 18 18 17 18 19 22 24 27 31 32 30 29 28 27 30 32 38 42 45 44 44 45 50 53 54 54 54 52 51 54 56 54 51 52 53
nan nan nan nan nan nan nan nan nan nan nan nan nan nan 22 nan 20 19 20 21 22 22 23 22 23 nan nan nan 19 17 16 17 21 nan nan nan nan nan 8 7 9 9 7 16 22 19 19 17 18 20 20 17 16 14 15 18 26 31 33 36 35 35 35 34 36 39 41 43 44 43 42 44 48 52 54 56 56 54 52 54 53 53 50 52 54
nan nan nan nan nan nan nan nan nan nan nan nan nan nan nan nan 19 19 19 nan nan 27 31 nan nan nan 21 20 nan nan 15 14 nan nan nan nan nan 3 2 3 3 2 3 11 12 14 14 14 15 16 16 16 15 16 17 20 25 30 34 36 35 34 35 36 35 35 38 42 43 42 40 nan 45 49 53 55 57 56 55 55 55 54 56 nan nan
nan nan nan nan nan nan nan nan nan nan nan nan 18 19 18 20 22 20 17 14 20 27 24 24 21 20 19 17 nan nan nan nan nan nan nan nan 5 5 5 4 4 4 1 9 8 9 10 11 11 13 12 12 15 18 21 24 27 29 30 30 30 32 34 35 33 32 35 38 41 43 43 44 46 48 51 53 54 55 55 nan nan nan nan nan nan
nan nan nan nan nan nan nan nan nan 18 19 19 20 20 20 19 18 26 26 24 25 25 23 19 17 16 nan nan nan nan nan nan nan nan nan nan 5 5 5 5 3 1 6 10 8 8 8 8 12 16 20 23 22 23 24 25 26 27 28 28 29 29 32 34 32 33 34 36 39 42 44 45 47 48 49 50 51 nan nan nan nan nan nan nan nan
nan nan nan nan nan nan nan nan nan nan 17 18 19 21 21 19 17 20 nan nan 21 20 nan nan nan nan nan nan nan nan nan nan nan nan nan nan nan nan 11 14 11 11 17 12 8 12 16 19 21 22 21 22 23 22 22 25 27 28 27 27 27 27 nan 31 31 nan nan 34 37 42 42 43 nan nan nan nan nan nan nan nan nan nan nan nan nan
nan nan nan nan nan nan nan nan nan 17 18 18 17 17 18 19 19 nan nan nan nan nan nan nan nan nan nan nan nan nan nan nan nan nan nan nan nan nan nan 21 23 16 16 18 19 22 nan nan 22 24 22 21 20 22 23 25 29 30 31 30 29 28 29 31 nan nan nan 35 nan nan nan nan nan nan nan nan nan nan nan nan nan nan nan nan nan
nan nan nan nan nan nan nan nan nan 16 18 18 17 nan 19 18 nan nan nan nan nan nan nan nan nan nan nan nan nan nan nan nan nan nan nan nan nan nan nan 25 26 25 27 23 nan nan nan nan 21 22 23 22 nan 23 22 25 27 31 34 34 nan nan nan nan nan nan nan nan nan nan nan nan nan nan nan nan nan nan nan nan nan nan nan nan nan
nan nan nan nan nan nan nan 16 14 16 18 18 18 nan nan nan nan nan nan nan nan nan nan nan nan nan nan nan nan nan nan nan nan nan nan nan nan nan nan 17 20 19 nan nan nan nan 24 22 nan nan 22 23 nan 23 nan nan nan nan 32 nan nan nan nan nan nan nan nan nan nan nan nan nan nan nan nan nan nan nan nan nan nan nan nan nan nan
nan nan nan nan nan nan nan nan 15 15 nan nan nan nan nan nan nan nan nan nan nan nan nan nan nan nan nan nan nan nan nan nan nan nan nan nan nan nan nan nan nan nan nan nan nan nan nan nan nan nan nan nan nan nan nan nan nan nan nan nan nan nan nan nan nan nan nan nan nan nan nan nan nan nan nan nan nan nan nan nan nan nan nan nan nan
nan nan nan nan nan nan nan 14 14 nan nan nan nan nan nan nan nan nan nan nan nan nan nan nan nan nan nan nan nan nan nan nan nan nan nan nan nan nan nan nan nan nan nan nan nan nan nan nan nan nan nan nan nan nan nan nan nan nan nan nan nan nan nan nan nan nan nan nan nan nan nan nan nan nan nan nan nan nan nan nan nan nan nan nan nan
nan nan nan nan nan nan nan nan nan nan nan nan nan nan nan nan nan nan nan nan nan nan nan nan nan nan nan nan nan nan nan nan nan nan nan nan nan nan nan nan nan nan nan nan nan nan nan nan nan nan nan nan nan nan nan nan nan nan nan nan nan nan nan nan nan nan nan nan nan nan nan nan nan nan nan nan nan nan nan nan nan nan nan nan nan
nan nan nan nan nan nan nan nan nan nan nan nan nan nan nan nan nan nan nan nan nan nan nan nan nan nan nan nan nan nan nan nan nan nan nan nan nan nan nan nan nan nan nan nan nan nan nan nan nan nan nan nan nan nan nan nan nan nan nan nan nan nan nan nan nan nan nan nan nan nan nan nan nan nan nan nan nan nan nan nan nan nan nan nan nan
nan nan nan nan nan nan nan nan nan nan nan nan nan nan nan nan nan nan nan nan nan nan nan nan nan nan nan nan nan nan nan nan nan nan nan nan nan nan nan nan nan nan nan nan nan nan nan nan nan nan nan nan nan nan nan nan nan nan nan nan nan nan nan nan nan nan nan nan nan nan nan nan nan nan nan nan nan nan nan nan nan nan nan nan nan
nan nan nan nan nan nan nan nan nan nan nan nan nan nan nan nan nan nan nan nan nan nan nan nan nan nan nan nan nan nan nan nan nan nan nan nan nan nan nan nan nan nan nan nan nan nan nan nan nan nan nan nan nan nan nan nan nan nan nan nan nan nan nan nan nan nan nan nan nan nan nan nan nan nan nan nan nan nan nan nan nan nan nan nan nan
nan nan nan nan nan nan nan nan nan nan nan nan nan nan nan nan nan nan nan nan nan nan nan nan nan nan nan nan nan nan nan nan nan nan nan nan nan nan nan nan nan nan nan nan nan nan nan nan nan nan nan nan nan nan nan nan nan nan nan nan nan nan nan nan nan nan nan nan nan nan nan nan nan nan nan nan nan nan nan nan nan nan nan nan nan
nan nan nan nan nan nan nan nan nan nan nan nan nan nan nan nan nan nan nan nan nan nan nan nan nan nan nan nan nan nan nan nan nan nan nan nan nan nan nan nan nan nan nan nan nan nan nan nan nan nan nan nan nan nan nan nan nan nan nan nan nan nan nan nan nan nan nan nan nan nan nan nan nan nan nan nan nan nan nan nan nan nan nan nan nan
nan nan nan nan nan nan nan nan nan nan nan nan nan nan nan nan nan nan nan nan nan nan nan nan nan nan nan nan nan nan nan nan nan nan nan nan nan nan nan nan nan nan nan nan nan nan nan nan nan nan nan nan nan nan nan nan nan nan nan nan nan nan nan nan nan nan nan nan nan nan nan nan nan nan nan nan nan nan nan nan nan nan nan nan nan
nan nan nan nan nan nan nan nan nan nan nan nan nan nan nan nan nan nan nan nan nan nan nan nan nan nan nan nan nan nan nan nan nan nan nan nan nan nan nan nan nan nan nan nan nan nan nan nan nan nan nan nan nan nan nan nan nan nan nan nan nan nan nan nan nan nan nan nan nan nan nan nan nan nan nan nan nan nan nan nan nan nan nan nan nan
nan nan nan nan nan nan nan nan nan nan nan nan nan nan nan nan nan nan nan nan nan nan nan nan nan nan nan nan nan nan nan nan nan nan nan nan nan nan nan nan nan nan nan nan nan nan nan nan nan nan nan nan nan nan nan nan nan nan nan nan nan nan nan nan nan nan nan nan nan nan nan nan nan nan nan nan nan nan nan nan nan nan nan nan nan
nan nan nan nan nan nan nan nan nan nan nan nan nan nan nan nan nan nan nan nan nan nan nan nan nan nan nan nan nan nan nan nan nan nan nan nan nan nan nan nan nan nan nan nan nan nan nan nan nan nan nan nan nan nan nan nan nan nan nan nan nan nan nan nan nan nan nan nan nan nan nan nan nan nan nan nan nan nan nan nan nan nan nan nan nan
nan nan nan nan nan nan nan nan nan nan nan nan nan nan nan nan nan nan nan nan nan nan nan nan nan nan nan nan nan nan nan nan nan nan nan nan nan nan nan nan nan nan nan nan nan nan nan nan nan nan nan nan nan nan nan nan nan nan nan nan nan nan nan nan nan nan nan nan nan nan nan nan nan nan nan nan nan nan nan nan nan nan nan nan nan
nan nan nan nan nan nan nan nan nan nan nan nan nan nan nan nan nan nan nan nan nan nan nan nan nan nan nan nan nan nan nan nan nan nan nan nan nan nan nan nan nan nan nan nan nan nan nan nan nan nan nan nan nan nan nan nan nan nan nan nan nan nan nan nan nan nan nan nan nan nan nan nan nan nan nan nan nan nan nan nan nan nan nan nan nan
nan nan nan nan nan nan nan nan nan nan nan nan nan nan nan nan nan nan nan nan nan nan nan nan nan nan nan nan nan nan nan nan nan nan nan nan nan nan nan nan nan nan nan nan nan nan nan nan nan nan nan nan nan nan nan nan nan nan nan nan nan nan nan nan nan nan nan nan nan nan nan nan nan nan nan nan nan nan nan nan nan nan nan nan nan
Wind_Direction
302 300 298 297 296 297 298 298 297 296 296 296 294 290 284 281 280 278 277 279 279 280 281 282 283 282 279 275 271 269 268 268 267 268 271 274 278 278 275 274 273 273 274 275 278 279 278 278 277 273 269 266 263 260 258 258 254 252 254 254 252 252 255 255 244 240 248 247 249 253 257 256 256 259 262 265 267 269 271 273 276 280 281 281 287
302 300 297 296 298 297 295 293 294 294 295 295 294 287 282 279 277 278 279 279 280 279 277 276 277 278 279 278 276 273 271 271 272 272 272 274 274 275 274 275 276 275 271 271 274 275 277 278 279 276 271 267 264 260 255 252 253 254 257 257 254 250 254 250 244 241 243 251 251 253 254 253 245 250 259 266 267 268 272 273 275 278 279 280 282
302 300 299 298 300 299 297 296 295 297 297 295 293 290 285 285 284 283 282 281 280 279 277 274 273 273 274 274 273 272 271 270 269 270 270 271 272 273 273 272 272 272 273 272 271 273 277 279 280 277 271 267 265 265 261 254 248 248 254 258 256 252 251 252 246 242 239 243 252 255 257 258 256 256 256 260 264 268 272 275 275 275 276 279 278
301 301 301 301 302 301 300 299 299 298 298 297 296 292 290 291 289 288 287 285 282 279 276 274 273 275 275 275 275 273 270 269 268 268 269 269 269 269 269 271 271 270 269 268 267 268 271 273 277 278 275 267 261 260 262 259 252 247 250 254 253 253 250 251 252 249 243 236 243 254 256 261 259 253 252 256 264 268 269 271 274 276 277 278 276
302 302 303 303 303 302 303 301 301 302 302 299 299 298 297 296 295 295 294 291 287 284 283 280 279 278 276 277 276 274 271 268 267 266 267 267 266 265 265 266 269 270 270 271 269 268 269 271 273 275 275 273 266 259 257 259 257 251 247 249 253 252 251 252 251 251 248 243 236 241 253 257 261 262 258 255 263 267 269 270 273 275 276 277 275
302 303 302 303 303 305 303 303 305 306 305 304 303 302 302 302 301 300 299 298 296 294 292 290 285 280 277 275 272 270 269 268 266 265 264 264 264 264 264 264 265 267 268 270 272 271 271 271 271 272 274 275 270 262 257 258 259 256 252 250 251 251 253 255 254 254 255 251 243 238 250 262 262 263 266 265 266 268 269 269 271 273 273 273 273
300 301 302 303 304 306 307 307 307 307 306 306 305 304 303 303 302 302 301 300 300 298 298 296 292 289 286 282 275 269 266 266 265 265 264 264 264 264 264 265 264 264 266 267 268 269 270 271 270 271 274 275 272 266 260 256 255 258 257 251 250 253 252 250 251 246 245 245 243 243 238 250 262 262 262 260 258 263 266 271 274 273 271 271 268
302 304 305 306 308 310 309 309 308 307 307 306 305 304 302 301 301 300 300 302 301 301 299 297 295 294 294 290 283 276 272 269 268 267 265 265 264 264 264 264 264 265 265 266 267 267 267 269 271 271 273 273 272 269 264 258 252 253 254 254 250 251 252 252 250 246 242 245 244 242 237 235 248 259 261 263 261 265 267 268 272 270 270 269 270
305 307 307 308 308 307 306 305 305 305 306 305 304 302 302 301 301 301 301 300 297 298 299 298 297 297 297 295 291 287 282 278 274 273 270 269 267 265 264 264 264 263 264 265 266 266 265 266 268 271 272 275 275 270 263 256 250 247 250 253 252 249 250 250 249 249 247 245 243 241 240 238 240 249 259 266 271 269 268 273 268 268 267 268 271
306 307 307 307 306 305 305 304 303 303 303 301 300 299 300 300 300 299 298 297 296 295 296 296 295 296 295 294 293 290 287 283 282 284 280 274 271 268 266 265 265 264 264 264 265 266 265 264 265 268 268 269 271 272 270 264 258 250 243 245 244 243 248 249 248 250 251 248 247 245 243 246 246 251 257 267 269 264 266 269 269 266 268 267 270
304 305 306 306 304 303 302 302 301 300 298 298 298 299 300 300 300 299 297 295 294 292 291 293 293 292 293 292 291 289 286 285 287 286 286 285 277 272 268 266 265 265 266 266 265 265 264 264 264 267 271 274 273 275 270 266 262 257 252 248 250 248 243 248 248 249 250 248 245 247 250 251 254 250 248 249 250 265 268 267 265 261 263 270 271
306 306 306 304 304 303 302 301 300 299 299 300 301 301 302 302 301 299 297 294 291 289 289 290 290 289 288 289 288 287 285 284 284 283 282 281 278 273 269 267 266 266 266 266 265 265 264 262 263 263 265 267 265 267 270 271 266 259 254 250 246 248 247 244 245 246 250 251 248 248 254 261 261 258 254 256 258 266 267 267 264 265 265 269 272
305 305 304 304 304 303 302 301 301 301 302 302 301 301 301 301 300 298 297 293 290 290 289 287 287 286 286 286 285 285 283 283 285 287 285 284 283 279 272 269 268 267 267 267 267 266 265 264 263 264 262 265 265 263 258 257 264 265 257 251 247 247 249 250 246 243 246 249 248 249 256 255 252 254 257 252 250 256 261 265 266 266 267 268 270
304 303 303 304 304 304 304 304 304 303 302 300 299 299 299 299 298 297 296 294 292 290 288 286 285 284 284 284 283 282 282 280 283 285 287 286 284 282 276 274 273 271 270 269 268 267 267 265 262 262 261 260 259 259 258 256 252 254 255 251 247 247 250 252 251 249 247 246 246 244 249 250 250 251 255 252 248 254 263 265 270 271 270 269 266
302 302 303 305 305 305 305 304 303 301 299 298 297 297 296 295 294 294 295 295 293 290 287 285 284 283 283 283 281 281 280 281 284 287 289 290 288 285 279 275 273 271 269 268 267 267 265 262 260 258 257 256 255 255 255 254 252 249 247 247 248 247 245 247 249 247 246 246 243 238 240 246 247 245 246 251 254 252 258 267 268 266 263 256 258
301 302 304 304 304 303 302 301 300 298 297 296 296 295 294 293 291 290 292 294 295 293 290 289 288 285 283 282 280 280 279 283 287 290 292 292 291 283 279 276 274 273 270 267 265 265 264 261 258 256 255 254 253 255 254 251 249 248 247 245 243 243 243 243 249 252 249 245 245 241 240 242 246 246 248 249 247 242 244 246 250 258 264 267 270
301 302 303 302 301 300 299 298 297 296 296 295 295 295 293 291 289 287 289 292 293 293 292 291 288 285 283 282 280 279 280 286 291 293 294 294 288 283 281 277 273 271 271 270 268 266 266 265 258 255 254 253 253 254 254 255 249 247 246 244 241 240 239 239 247 252 251 248 242 241 239 238 239 241 245 255 258 251 245 254 256 254 253 259 259
300 301 300 299 299 298 298 297 297 297 297 297 296 295 294 292 290 287 286 287 290 291 290 289 288 288 286 283 282 283 286 291 295 295 296 296 293 287 282 278 277 275 268 267 268 265 262 265 261 255 252 251 251 253 255 255 251 249 247 241 238 238 238 237 238 246 257 252 247 241 241 240 239 237 241 247 257 257 249 255 263 264 261 265 269
299 299 298 298 298 298 298 299 299 298 298 298 297 296 295 293 290 287 286 286 288 289 289 288 287 286 285 284 285 291 292 292 294 297 300 300 295 288 284 279 277 274 272 267 264 262 255 256 264 263 255 251 252 252 252 253 248 248 247 244 239 236 237 238 238 236 242 245 240 240 240 242 241 242 242 246 251 262 259 254 258 264 264 266 268
298 298 298 299 299 298 299 299 299 299 298 297 296 296 295 294 292 289 286 285 285 285 284 285 284 283 282 284 288 293 293 291 290 293 296 298 299 289 282 279 277 275 272 267 262 258 255 249 253 262 267 262 nan 254 251 253 249 246 243 242 242 238 238 237 237 236 235 242 241 239 241 242 243 243 244 244 245 252 256 253 254 265 269 267 269
298 298 298 298 299 299 298 298 297 297 296 296 295 295 294 293 291 289 286 285 285 284 284 285 285 285 286 288 290 292 293 293 293 294 294 295 296 293 283 281 276 272 266 265 262 258 257 253 244 248 264 268 264 259 256 nan nan 247 246 241 240 235 233 234 237 237 234 233 236 240 239 240 243 244 243 246 250 254 258 263 263 266 270 274 277
297 297 298 298 298 298 297 297 296 295 295 294 294 294 294 292 291 291 289 286 285 285 287 288 288 288 288 289 291 293 295 298 295 295 297 298 297 299 286 281 278 268 264 262 258 255 252 249 248 248 251 258 262 nan 262 259 nan 248 242 241 234 233 233 232 233 235 237 236 235 235 238 240 241 245 246 246 251 255 259 264 265 265 267 269 274
297 298 298 299 298 298 297 296 294 294 293 293 293 292 291 291 292 291 289 288 286 286 290 290 289 287 287 289 291 293 295 296 302 297 296 298 300 297 298 289 285 279 274 266 257 252 249 247 247 245 248 251 256 260 262 261 254 nan 243 238 235 233 232 234 233 231 233 236 236 237 237 238 242 245 247 245 250 254 258 262 265 267 267 267 271
299 299 299 298 297 296 296 295 294 294 294 292 293 293 292 291 290 290 288 285 282 283 287 287 286 286 287 289 291 294 294 292 290 292 291 295 297 299 300 303 296 285 278 265 251 nan 241 245 247 244 248 249 nan 259 262 260 252 250 246 239 237 237 235 233 234 235 234 234 238 241 242 241 243 246 247 248 251 254 257 259 263 266 267 267 263
nan nan nan nan nan 297 297 297 296 295 294 294 293 293 291 289 289 288 286 283 281 281 282 283 285 287 289 292 293 289 286 285 284 282 282 287 297 300 298 297 298 298 278 253 nan nan nan 237 236 235 nan 251 253 257 256 258 258 248 244 243 242 238 237 236 236 238 237 238 240 242 243 242 244 246 245 245 245 243 245 247 250 252 256 258 256
nan nan nan nan nan nan nan nan nan nan nan nan nan nan nan 288 288 285 283 282 282 281 281 284 289 292 291 289 285 283 281 279 275 273 273 275 278 288 291 294 301 306 290 242 225 221 225 241 249 243 244 250 248 nan 250 251 253 249 244 244 243 241 240 238 238 239 239 241 243 244 246 243 242 246 248 248 247 247 249 250 252 252 255 257 258
nan nan nan nan nan nan nan nan nan nan nan nan nan nan nan 288 286 284 282 279 278 279 282 286 289 288 291 290 285 278 277 276 274 272 273 273 274 271 266 258 241 230 237 246 255 254 253 258 256 259 254 252 251 248 247 247 246 244 240 240 239 238 238 240 241 242 243 243 247 249 250 246 245 245 246 248 249 250 252 253 252 251 255 256 260
nan nan nan nan nan nan nan nan nan nan nan nan nan 289 288 285 284 283 280 278 277 278 281 284 287 290 286 280 nan 278 277 275 272 270 nan nan nan nan 259 255 257 261 252 253 247 236 230 245 261 257 255 252 249 247 246 243 240 236 235 236 238 239 238 239 242 241 242 247 252 252 252 251 249 249 250 252 253 251 251 256 258 256 257 259 258
nan nan nan nan nan nan nan nan nan nan nan nan nan nan 290 nan 286 282 277 279 279 278 281 283 284 nan nan nan 281 277 276 274 274 nan nan nan nan nan 249 257 268 260 260 238 234 229 231 233 247 253 255 255 252 249 242 242 244 243 242 237 234 235 237 240 244 248 250 252 252 251 251 253 253 253 253 254 252 251 252 256 256 258 257 258 263
nan nan nan nan nan nan nan nan nan nan nan nan nan nan nan nan 303 290 282 nan nan 273 283 nan nan nan 284 285 nan nan 275 273 nan nan nan nan nan 140 79 55 67 105 152 225 226 228 232 232 244 253 257 258 258 253 247 246 247 243 240 240 239 238 239 239 239 245 249 249 249 245 243 nan 245 248 250 252 253 253 253 256 257 258 260 nan nan
nan nan nan nan nan nan nan nan nan nan nan nan 304 301 295 295 306 317 314 306 273 273 286 289 289 292 290 286 nan nan nan nan nan nan nan nan 126 122 113 97 84 78 322 272 258 261 244 245 249 252 253 255 256 253 250 246 245 243 241 239 237 238 239 241 245 249 249 248 246 245 244 245 248 252 255 256 258 258 258 nan nan nan nan nan nan
nan nan nan nan nan nan nan nan nan 304 303 300 299 298 296 293 286 287 281 285 291 294 291 295 296 300 nan nan nan nan nan nan nan nan nan nan 130 130 147 154 139 6 311 307 263 254 264 260 253 240 234 233 241 248 246 242 238 237 237 236 237 240 245 246 244 245 246 246 246 246 247 250 254 257 260 262 262 nan nan nan nan nan nan nan nan
nan nan nan nan nan nan nan nan nan nan 300 298 299 302 302 297 291 280 nan nan 296 302 nan nan nan nan nan nan nan nan nan nan nan nan nan nan nan nan 192 198 208 254 282 280 257 254 239 237 245 247 244 241 242 241 244 244 239 232 228 234 239 241 nan 252 252 nan nan 247 249 252 252 253 nan nan nan nan nan nan nan nan nan nan nan nan nan
nan nan nan nan nan nan nan nan nan 302 303 301 304 309 304 295 280 nan nan nan nan nan nan nan nan nan nan nan nan nan nan nan nan nan nan nan nan nan nan 243 248 270 257 242 237 238 nan nan 237 240 239 237 234 240 239 240 243 240 236 235 235 232 235 240 nan nan nan 249 nan nan nan nan nan nan nan nan nan nan nan nan nan nan nan nan nan
nan nan nan nan nan nan nan nan nan 303 298 295 296 nan 291 287 nan nan nan nan nan nan nan nan nan nan nan nan nan nan nan nan nan nan nan nan nan nan nan 239 235 231 234 234 nan nan nan nan 233 237 239 237 nan 238 237 243 241 240 238 237 nan nan nan nan nan nan nan nan nan nan nan nan nan nan nan nan nan nan nan nan nan nan nan nan nan
nan nan nan nan nan nan nan 294 285 287 289 293 292 nan nan nan nan nan nan nan nan nan nan nan nan nan nan nan nan nan nan nan nan nan nan nan nan nan nan 246 240 231 nan nan nan nan 233 230 nan nan 234 233 nan 232 nan nan nan nan 233 nan nan nan nan nan nan nan nan nan nan nan nan nan nan nan nan nan nan nan nan nan nan nan nan nan nan
nan nan nan nan nan nan nan nan 290 288 nan nan nan nan nan nan nan nan nan nan nan nan nan nan nan nan nan nan nan nan nan nan nan nan nan nan nan nan nan nan nan nan nan nan nan nan nan nan nan nan nan nan nan nan nan nan nan nan nan nan nan nan nan nan nan nan nan nan nan nan nan nan nan nan nan nan nan nan nan nan nan nan nan nan nan
nan nan nan nan nan nan nan 291 290 nan nan nan nan nan nan nan nan nan nan nan nan nan nan nan nan nan nan nan nan nan nan nan nan nan nan nan nan nan nan nan nan nan nan nan nan nan nan nan nan nan nan nan nan nan nan nan nan nan nan nan nan nan nan nan nan nan nan nan nan nan nan nan nan nan nan nan nan nan nan nan nan nan nan nan nan
nan nan nan nan nan nan nan nan nan nan nan nan nan nan nan nan nan nan nan nan nan nan nan nan nan nan nan nan nan nan nan nan nan nan nan nan nan nan nan nan nan nan nan nan nan nan nan nan nan nan nan nan nan nan nan nan nan nan nan nan nan nan nan nan nan nan nan nan nan nan nan nan nan nan nan nan nan nan nan nan nan nan nan nan nan
nan nan nan nan nan nan nan nan nan nan nan nan nan nan nan nan nan nan nan nan nan nan nan nan nan nan nan nan nan nan nan nan nan nan nan nan nan nan nan nan nan nan nan nan nan nan nan nan nan nan nan nan nan nan nan nan nan nan nan nan nan nan nan nan nan nan nan nan nan nan nan nan nan nan nan nan nan nan nan nan nan nan nan nan nan
nan nan nan nan nan nan nan nan nan nan nan nan nan nan nan nan nan nan nan nan nan nan nan nan nan nan nan nan nan nan nan nan nan nan nan nan nan nan nan nan nan nan nan nan nan nan nan nan nan nan nan nan nan nan nan nan nan nan nan nan nan nan nan nan nan nan nan nan nan nan nan nan nan nan nan nan nan nan nan nan nan nan nan nan nan
nan nan nan nan nan nan nan nan nan nan nan nan nan nan nan nan nan nan nan nan nan nan nan nan nan nan nan nan nan nan nan nan nan nan nan nan nan nan nan nan nan nan nan nan nan nan nan nan nan nan nan nan nan nan nan nan nan nan nan nan nan nan nan nan nan nan nan nan nan nan nan nan nan nan nan nan nan nan nan nan nan nan nan nan nan
nan nan nan nan nan nan nan nan nan nan nan nan nan nan nan nan nan nan nan nan nan nan nan nan nan nan nan nan nan nan nan nan nan nan nan nan nan nan nan nan nan nan nan nan nan nan nan nan nan nan nan nan nan nan nan nan nan nan nan nan nan nan nan nan nan nan nan nan nan nan nan nan nan nan nan nan nan nan nan nan nan nan nan nan nan
nan nan nan nan nan nan nan nan nan nan nan nan nan nan nan nan nan nan nan nan nan nan nan nan nan nan nan nan nan nan nan nan nan nan nan nan nan nan nan nan nan nan nan nan nan nan nan nan nan nan nan nan nan nan nan nan nan nan nan nan nan nan nan nan nan nan nan nan nan nan nan nan nan nan nan nan nan nan nan nan nan nan nan nan nan
nan nan nan nan nan nan nan nan nan nan nan nan nan nan nan nan nan nan nan nan nan nan nan nan nan nan nan nan nan nan nan nan nan nan nan nan nan nan nan nan nan nan nan nan nan nan nan nan nan nan nan nan nan nan nan nan nan nan nan nan nan nan nan nan nan nan nan nan nan nan nan nan nan nan nan nan nan nan nan nan nan nan nan nan nan
nan nan nan nan nan nan nan nan nan nan nan nan nan nan nan nan nan nan nan nan nan nan nan nan nan nan nan nan nan nan nan nan nan nan nan nan nan nan nan nan nan nan nan nan nan nan nan nan nan nan nan nan nan nan nan nan nan nan nan nan nan nan nan nan nan nan nan nan nan nan nan nan nan nan nan nan nan nan nan nan nan nan nan nan nan
nan nan nan nan nan nan nan nan nan nan nan nan nan nan nan nan nan nan nan nan nan nan nan nan nan nan nan nan nan nan nan nan nan nan nan nan nan nan nan nan nan nan nan nan nan nan nan nan nan nan nan nan nan nan nan nan nan nan nan nan nan nan nan nan nan nan nan nan nan nan nan nan nan nan nan nan nan nan nan nan nan nan nan nan nan
nan nan nan nan nan nan nan nan nan nan nan nan nan nan nan nan nan nan nan nan nan nan nan nan nan nan nan nan nan nan nan nan nan nan nan nan nan nan nan nan nan nan nan nan nan nan nan nan nan nan nan nan nan nan nan nan nan nan nan nan nan nan nan nan nan nan nan nan nan nan nan nan nan nan nan nan nan nan nan nan nan nan nan nan nan
nan nan nan nan nan nan nan nan nan nan nan nan nan nan nan nan nan nan nan nan nan nan nan nan nan nan nan nan nan nan nan nan nan nan nan nan nan nan nan nan nan nan nan nan nan nan nan nan nan nan nan nan nan nan nan nan nan nan nan nan nan nan nan nan nan nan nan nan nan nan nan nan nan nan nan nan nan nan nan nan nan nan nan nan nan
nan nan nan nan nan nan nan nan nan nan nan nan nan nan nan nan nan nan nan nan nan nan nan nan nan nan nan nan nan nan nan nan nan nan nan nan nan nan nan nan nan nan nan nan nan nan nan nan nan nan nan nan nan nan nan nan nan nan nan nan nan nan nan nan nan nan nan nan nan nan nan nan nan nan nan nan nan nan nan nan nan nan nan nan nan
nan nan nan nan nan nan nan nan nan nan nan nan nan nan nan nan nan nan nan nan nan nan nan nan nan nan nan nan nan nan nan nan nan nan nan nan nan nan nan nan nan nan nan nan nan nan nan nan nan nan nan nan nan nan nan nan nan nan nan nan nan nan nan nan nan nan nan nan nan nan nan nan nan nan nan nan nan nan nan nan nan nan nan nan nan